{"data":{"norad_id":67315,"intl_designator":"2026-002L","name":"STARLINK-36463","alt_names":[],"object_type":"PAYLOAD","status":"ACTIVE","operator":null,"country":"US","launch_date":"2026-01-04","launch_site_code":"AFETR","launch_vehicle":null,"mission":null,"orbit_class":"UNKNOWN","rcs_meters":null,"size_class":null,"mass_kg":null,"dimensions":null,"purposes":["comms"],"wikipedia_slug":null,"has_3d_model":false,"image_url":null,"decayed_at":null,"tle_current":{"epoch":"2026-05-25T00:13:50.201184Z","epoch_age_seconds":68176,"freshness":"FRESH","line1":"1 67315U 26002L   26145.00960881  .00014811  00000+0  54672-3 0  9993","line2":"2 67315  43.0011 254.0289 0001102 278.3239  81.7488 15.27575274 22815","mean_motion":15.27575274,"eccentricity":0.0001102,"inclination_deg":43.0011,"raan_deg":254.0289,"arg_perigee_deg":278.3239,"mean_anomaly_deg":81.7488,"bstar":0.00054672,"rev_number":2281,"period_min":94.267040355355,"perigee_km":482.30714315304,"apogee_km":483.81935168757,"semimajor_km":6861.2002474203,"source":"CELESTRAK","updated_at":"2026-05-25T13:38:21.516711Z"}}}